FW6644 Weather Reports


Display with metric or nautical units.
time (UTC)temp
F
wind
direction
speed
MPH
gust
MPH
rain 1hr
in
rain 24hr
in
rain mn
in
humidity
%
barometer
mb
20260902023020 93 340 0.0 0.0 0.00 0.00 0.00 38 1007.5
20260902021510 94 340 0.0 0.0 0.00 0.00 0.00 35 1007.4
20260902020010 94 340 0.0 0.0 0.00 0.00 0.00 35 1007.2
20260902014514 95 340 0.0 1.0 0.00 0.00 0.00 34 1007.1
20260902013008 97 1 1.0 2.0 0.00 0.00 0.00 33 1007.1
20260902011506 98 356 0.0 2.0 0.00 0.00 0.00 32 1007.3
20260902010005 99 259 1.0 4.0 0.00 0.00 0.00 32 1007.5
20260902004503 99 288 2.0 5.0 0.00 0.00 0.00 31 1007.6
20260902003001 100 253 1.0 6.0 0.00 0.00 0.00 31 1007.7
20260902001604 100 304 0.0 2.0 0.00 0.00 0.00 32 1007.8
20260902000059 99 261 2.0 5.0 0.00 0.00 0.00 32 1007.9
20260901234605 100 139 1.0 8.0 0.00 0.00 0.00 32 1008.0
20260901233055 100 57 4.0 8.0 0.00 0.00 0.00 32 1008.2
20260901231558 100 191 2.0 8.0 0.00 0.00 0.00 33 1008.2
20260901230105 100 89 3.0 8.0 0.00 0.00 0.00 34 1008.3
20260901224553 100 219 1.0 10.0 0.00 0.00 0.00 34 1008.4
20260901223050 102 228 1.0 4.0 0.00 0.00 0.00 33 1008.5
20260901221559 100 184 4.0 9.0 0.00 0.00 0.00 35 1008.9
20260901220045 100 311 2.0 9.0 0.00 0.00 0.00 34 1008.9
20260901214543 100 244 0.0 6.0 0.00 0.00 0.00 36 1009.1
20260901213040 101 91 0.0 3.0 0.00 0.00 0.00 35 1009.5
20260901211538 100 113 2.0 5.0 0.00 0.00 0.00 36 1009.8
20260901210035 100 186 2.0 6.0 0.00 0.00 0.00 36 1010.0
20260901204533 100 103 2.0 9.0 0.00 0.00 0.00 36 1010.3
20260901203030 97 212 1.0 5.0 0.00 0.00 0.00 40 1010.4
20260901201526 97 163 1.0 7.0 0.00 0.00 0.00 39 1010.7
20260901200025 98 345 1.0 5.0 0.00 0.00 0.00 38 1010.9
20260901194624 95 20 1.0 6.0 0.00 0.00 0.00 40 1011.1
20260901193022 96 346 1.0 5.0 0.00 0.00 0.00 40 1011.4
20260901191522 97 72 1.0 7.0 0.00 0.00 0.00 41 1011.6
20260901190024 95 117 2.0 5.0 0.00 0.00 0.00 44 1011.9
20260901184517 96 16 1.0 6.0 0.00 0.00 0.00 42 1012.1
20260901183023 95 145 2.0 8.0 0.00 0.00 0.00 43 1012.4
20260901181514 95 173 2.0 8.0 0.00 0.00 0.00 44 1012.5
20260901180015 93 122 3.0 7.0 0.00 0.00 0.00 45 1012.6
20260901174509 92 172 2.0 6.0 0.00 0.00 0.00 48 1012.8
20260901173008 92 168 0.0 6.0 0.00 0.00 0.00 48 1012.9
20260901171507 91 179 0.0 4.0 0.00 0.00 0.00 49 1012.9
20260901170005 91 186 3.0 6.0 0.00 0.00 0.00 49 1012.9
20260901164503 90 143 0.0 3.0 0.00 0.03 0.00 49 1012.7
20260901163117 89 172 1.0 5.0 0.00 0.03 0.00 50 1012.7
20260901161607 90 84 0.0 3.0 0.00 0.03 0.00 51 1012.6
20260901160057 88 174 1.0 5.0 0.00 0.03 0.00 53 1012.6
20260901154553 87 160 1.0 4.0 0.00 0.11 0.00 55 1012.6
20260901153048 85 98 1.0 5.0 0.00 0.11 0.00 57 1012.3
20260901151554 85 197 1.0 7.0 0.00 0.11 0.00 57 1012.4
20260901150046 84 112 0.0 6.0 0.00 0.11 0.00 57 1012.4
20260901144538 83 13 1.0 3.0 0.00 0.18 0.00 59 1012.3
20260901143039 82 120 0.0 3.0 0.00 0.18 0.00 60 1012.1
20260901141542 81 30 0.0 2.0 0.00 0.18 0.00 64 1012.1
20260901140032 81 20 0.0 1.0 0.00 0.18 0.00 65 1012.2
20260901134530 80 122 0.0 2.0 0.00 0.18 0.00 69 1012.1
20260901133027 78 85 0.0 2.0 0.00 0.18 0.00 72 1011.9
20260901131525 77 78 0.0 2.0 0.00 0.18 0.00 74 1011.5
20260901130024 76 131 0.0 1.0 0.00 0.18 0.00 74 1011.5
20260901124524 76 121 0.0 1.0 0.00 0.18 0.00 75 1011.6
20260901123031 77 121 0.0 1.0 0.00 0.18 0.00 74 1011.5
20260901121520 77 126 0.0 1.0 0.00 0.18 0.00 74 1011.3
20260901120021 77 128 0.0 1.0 0.00 0.18 0.00 73 1011.1
20260901114519 76 134 0.0 1.0 0.00 0.18 0.00 74 1011.0
20260901113017 77 94 0.0 0.0 0.00 0.18 0.00 73 1011.1
20260901111515 77 93 0.0 1.0 0.00 0.18 0.00 72 1010.9
20260901110014 77 39 0.0 2.0 0.00 0.18 0.00 71 1010.8
20260901104512 78 105 0.0 1.0 0.00 0.18 0.00 71 1010.9
20260901103011 78 122 0.0 2.0 0.00 0.18 0.00 70 1011.1
20260901101513 78 109 0.0 0.0 0.00 0.18 0.00 71 1011.1
20260901100010 78 105 0.0 1.0 0.00 0.18 0.00 71 1011.0
20260901094510 78 89 0.0 1.0 0.00 0.18 0.00 71 1011.1
20260901093008 78 104 0.0 0.0 0.00 0.18 0.00 70 1011.1
20260901091610 78 105 0.0 0.0 0.00 0.18 0.00 70 1011.2
20260901090007 78 77 0.0 0.0 0.00 0.18 0.00 69 1011.2
20260901084504 79 98 0.0 1.0 0.00 0.18 0.00 69 1011.2
20260901083003 79 102 0.0 2.0 0.00 0.18 0.00 68 1011.2
20260901081503 79 104 0.0 4.0 0.00 0.18 0.00 68 1011.2
20260901080113 79 131 0.0 0.0 0.00 0.00 0.00 67 1011.1
20260901074623 79 112 1.0 4.0 0.00 0.18 0.00 67 1011.1
20260901073100 80 156 0.0 3.0 0.00 0.18 0.00 67 1011.1
20260901071559 80 138 1.0 3.0 0.00 0.18 0.00 67 1011.2
20260901070054 80 82 0.0 2.0 0.00 0.18 0.00 67 1011.0
20260901064554 80 117 0.0 3.0 0.00 0.18 0.18 65 1010.8
20260901063102 81 131 0.0 5.0 0.00 0.18 0.18 64 1010.8
20260901061553 81 89 1.0 4.0 0.00 0.18 0.18 62 1010.7
20260901060052 81 143 1.0 3.0 0.00 0.18 0.18 60 1010.8
20260901054554 82 39 0.0 3.0 0.00 0.20 0.18 59 1010.8
20260901053059 82 160 0.0 4.0 0.00 0.20 0.18 58 1010.7
20260901051554 82 117 0.0 2.0 0.00 0.20 0.18 57 1010.7
20260901050049 82 150 1.0 3.0 0.00 0.20 0.18 56 1010.7
20260901044553 83 155 1.0 5.0 0.00 0.28 0.18 55 1010.7
20260901043048 83 96 1.0 4.0 0.00 0.28 0.18 53 1010.6
20260901041613 83 158 0.0 2.0 0.00 0.28 0.18 52 1010.8
20260901040113 84 253 1.0 4.0 0.00 0.28 0.18 50 1010.5
20260901034549 84 156 1.0 5.0 0.00 0.28 0.18 49 1010.4
20260901033045 84 139 1.0 6.0 0.00 0.28 0.18 51 1010.3
20260901031544 85 148 1.0 6.0 0.00 0.28 0.18 51 1010.1
20260901030043 85 229 0.0 3.0 0.00 0.28 0.18 47 1009.9
20260901024548 85 134 0.0 3.0 0.00 0.28 0.18 46 1009.6